Location: Bastrop State Park
(30.1090°N, 97.2819°W)
Time: 12:30:13
(UTC-06:00)

ISS - Visible Passes

Search period start: 26 November 2014 00:00
Search period end: 06 December 2014 00:00
Orbit: 407 x 417 km, 51.6° (Epoch: 26 November)

Date Brightness Start Highest point End Pass type
(mag) Time Alt. Az. Time Alt. Az. Time Alt. Az.
26 Nov -1.7 06:36:47 10° NNW 06:39:45 30° NE 06:42:43 10° ESE visible
27 Nov -0.9 05:47:49 11° N 05:49:53 17° NE 05:52:09 10° E visible
28 Nov -3.3 06:33:37 10° NW 06:36:54 74° SW 06:40:11 10° SE visible
29 Nov -2.6 05:45:52 29° NNW 05:47:11 49° NE 05:50:23 10° ESE visible
30 Nov -0.7 04:58:35 20° ENE 04:58:35 20° ENE 05:00:09 10° E visible
30 Nov -1.6 06:31:26 10° WNW 06:33:53 20° SW 06:36:21 10° S visible
01 Dec -2.8 05:44:13 41° SW 05:44:16 41° SW 05:47:23 10° SSE visible
02 Dec -0.5 04:57:05 16° SE 04:57:05 16° SE 04:57:52 10° SE visible
03 Dec -0.9 19:03:19 10° S 19:04:10 14° SSE 19:04:10 14° SSE visible
04 Dec -0.1 19:49:20 10° WSW 19:49:53 14° WSW 19:49:53 14° WSW visible
05 Dec -3.4 18:59:31 10° SW 19:02:41 74° SSE 19:02:41 74° SSE visible
